Showing default

MUSAT2, 59099

Orbit data source: Space-Track

MUSAT2, 59099 is a payload satellite owned by Muon Space (US) in SSO that was launched on Mon, 04 Mar 2024 UTC via an FALCON 9 launch vehicle from the Air Force Western Test Range (AFWTR). Payload-class satellites include a variety of spacecraft equipped with specific instruments for various scientific and technological missions. These include communications satellites like Starlink; space stations such as the ISS; scientific satellites like the Hubble; Earth observation satellites from companies like Planet Labs, Umbra, and HawkEye 360; GPS; miniature CubeSats for education and research; and military/defense satellites.

Loading next visibility...
Identifier
59099, 2024-043B
Orbit
SSO
Country
Flag of USUS
Related business
Manufacturer
Muon Space
Mission
Operational Commercial Imaging
Bus & Motor
MUON, Unknown motor
Mass
67 kg wet, 67 kg dry
Launch date (UTC)
2024-03-04 (2 years ago)
Launch vehicle
FALCON 9
Launch site
Air Force Western Test Range (AFWTR)
Object type
Payload
Rocket body
Debris
Shape & HBR
Box, 0.3 m
Radar Cross Section
0.195 m², Medium (>0.1 m² and < 1m²)

Expand to show TLE details & history
Last TLE update: 9 hours ago

TLE from 9 hours ago
0 MUSAT2
1 59099U 24043B   26034.32217850  .00010590  00000-0  71991-3 0  9993
2 59099  97.8392 170.2083 0007829  70.8037 289.4036 15.06513344104924
Epoch: 2026-02-03T07:43Z
TLE epoch observation values (Epoch: 2026-02-03T07:43:56.222Z)
Latitude
-0.00004°
Longitude
-79.28073°
Altitude
548.126 km
Speed
7.589 km/s
True Right ascension
11h 20m 49s
True Declination
0° 00' 00"
Sunlit
Object was in full shadow at epoch
Visualization orbit readout
Latitude
Unknown
Longitude
Unknown
Altitude
Unknown
Speed
Unknown
Apparent Right ascension
Unknown
Apparent Declination
Unknown
Sunlit
N/A
Visualization observer readout
Local Sidereal Time
18:43:47
Azimuth
Unknown
Elevation
Unknown
Doppler factor
Unknown
Orbital elements
Apogee altitude
549.286 km
Perigee altitude
538.448 km
Semi-major axis
6,922.004 km
Eccentricity
0.00078
Inclination
97.8392°
RAAN
170.2083°
Arg. of periapsis
70.8037°
True anomaly
289.31895°
Mean anomaly
289.4036°
Eccentric anomaly
289.36128°
Mean motion
3.76873 °/min
Orbital period
95.52 mins
BSTAR
0.00071991
Loading maneuver chart data...
Computing Atmospheric mass density...
Loading historical data...
Loading historical data...
Loading historical data...
Loading historical data...
Loading historical data...
Loading historical data...
Loading historical data...

Documentation

Showing up to 5 results
|